CZ-8 R/B, 69122

Orbit data source: Space-Track

CZ-8 R/B, 69122 is space debris in LEO originally from a launch on Sun, 17 May 2026 UTC launched from the Wenchang Satellite Launch Center (WSC). Debris objects in space refer to the collection of defunct objects orbiting the Earth. Examples of debris include non-operational satellites, rocket bodies, and fragments generated from explosions, collisions, or faulty payload assembly.

Loading next visibility...
Identifier
69122, 2026-108U
Orbit
LEO
Country
Flag of CNCN / PRC
Related business
Manufacturer
CALT
Mission
Spacecraft
Bus & Motor
CZ-3A STAGE 3, Unknown motor
Mass
~2,800 kg wet, ~2,800 kg dry
Launch date (UTC)
2026-05-17 (1 month ago)
Launch vehicle
Unknown
Launch site
Wenchang Satellite Launch Center (WSC)
Object type
Payload
Rocket body
Debris
Shape & HBR
Unknown shape, 8.0 m
Radar Cross Section
Large (>1 m²)

Expand to show TLE details & history
Last TLE update: 11 hours ago

TLE from 11 hours ago
0 CZ-8 R/B
1 69122U 26108U   26171.37704931  .00000120  00000-0  32903-4 0  9992
2 69122  89.0105  21.7304 0067250   9.8207 350.4290 14.39195247  4864
Epoch: 2026-06-20T09:02Z
TLE epoch observation values (Epoch: 2026-06-20T09:02:57.060Z)
Latitude
Longitude
-22.5999°
Altitude
716.895 km
Speed
7.522 km/s
True Right ascension
01h 26m 55s
True Declination
0° 00' 00"
Sunlit
Object was in daylight at epoch
Visualization orbit readout
Latitude
Unknown
Longitude
Unknown
Altitude
Unknown
Speed
Unknown
Apparent Right ascension
Unknown
Apparent Declination
Unknown
Sunlit
N/A
Visualization observer readout
Local Sidereal Time
07:15:40
Azimuth
Unknown
Elevation
Unknown
Doppler factor
Unknown
Orbital elements
Apogee altitude
806.073 km
Perigee altitude
710.091 km
Semi-major axis
7,136.219 km
Eccentricity
0.00673
Inclination
89.0105°
RAAN
21.7304°
Arg. of periapsis
9.8207°
True anomaly
350.2998°
Mean anomaly
350.429°
Eccentric anomaly
350.36451°
Mean motion
3.60032 °/min
Orbital period
99.99 mins
BSTAR
0.000032903
Loading maneuver chart data...
Computing Atmospheric mass density...
Loading historical data...
Loading historical data...
Loading historical data...
Loading historical data...
Loading historical data...
Loading historical data...
Loading historical data...

Documentation

Showing up to 5 results
|